Location: Newark
(25.6108°S, 54.5803°W)
Time: 08:55:26
(UTC+00:00)

Tiros 1 - Pass Details

Date: 28 October 2020
Orbit: 630 x 664 km, 48.4° (Epoch: 29 November)

Event Time Altitude Azimuth Distance (km) Brightness Sun altitude
Rises 00:16:44 0° 207° (SSW) 3,016 11.5 -30.5°
Reaches altitude 10° 00:20:35 10° 177° (S) 2,094 10.1 -31.2°
Enters shadow 00:21:42 12° 164° (SSE) 1,967 9.8 -31.4°
Maximum altitude 00:22:35 12° 152° (SSE) 1,934 - -31.5°
Drops below altitude 10° 00:24:34 10° 128° (SE) 2,083 - -31.9°
Sets 00:28:21 0° 98° (E) 2,981 - -32.6°
